Year,Month,Day,Hour,Minute,Value (Times are PST for windspeed in km/hr)
2008,02,09,00,00,0.00
2008,02,09,00,01,0.00
2008,02,09,00,02,0.30
2008,02,09,00,03,0.10
2008,02,09,00,04,0.10
2008,02,09,00,05,0.00
2008,02,09,00,06,0.20
2008,02,09,00,07,0.10
2008,02,09,00,08,0.10
2008,02,09,00,09,0.30
2008,02,09,00,10,0.00
2008,02,09,00,11,0.10
2008,02,09,00,12,0.00
2008,02,09,00,13,0.20
2008,02,09,00,14,0.30
2008,02,09,00,15,0.00
2008,02,09,00,16,0.80
2008,02,09,00,17,2.30
2008,02,09,00,18,2.90
2008,02,09,00,19,1.50
2008,02,09,00,20,1.20
2008,02,09,00,21,1.00
2008,02,09,00,22,1.40
2008,02,09,00,23,2.60
2008,02,09,00,24,1.60
2008,02,09,00,25,0.60
2008,02,09,00,26,1.10
2008,02,09,00,27,0.00
2008,02,09,00,28,1.30
2008,02,09,00,29,1.40
2008,02,09,00,30,1.60
2008,02,09,00,31,1.70
2008,02,09,00,32,1.50
2008,02,09,00,33,1.30
2008,02,09,00,34,1.80
2008,02,09,00,35,1.80
2008,02,09,00,36,1.60
2008,02,09,00,37,2.30
2008,02,09,00,38,1.70
2008,02,09,00,39,0.80
2008,02,09,00,40,0.20
2008,02,09,00,41,0.00
2008,02,09,00,42,0.00
2008,02,09,00,43,0.00
2008,02,09,00,44,0.00
2008,02,09,00,45,0.00
2008,02,09,00,46,0.00
2008,02,09,00,47,0.00
2008,02,09,00,48,0.00
2008,02,09,00,49,0.00
2008,02,09,00,50,0.00
2008,02,09,00,51,0.00
2008,02,09,00,52,0.10
2008,02,09,00,53,0.00
2008,02,09,00,54,0.00
2008,02,09,00,55,0.00
2008,02,09,00,56,0.00
2008,02,09,00,57,0.00
2008,02,09,00,58,0.00
2008,02,09,00,59,0.00
2008,02,09,01,00,0.00
2008,02,09,01,01,0.00
2008,02,09,01,02,0.00
2008,02,09,01,03,0.00
2008,02,09,01,04,0.00
2008,02,09,01,05,0.00
2008,02,09,01,06,0.00
2008,02,09,01,07,0.00
2008,02,09,01,08,0.00
2008,02,09,01,09,0.00
2008,02,09,01,10,0.00
2008,02,09,01,11,0.00
2008,02,09,01,12,0.00
2008,02,09,01,13,0.00
2008,02,09,01,14,0.00
2008,02,09,01,15,0.30
2008,02,09,01,16,2.80
2008,02,09,01,17,0.00
2008,02,09,01,18,0.00
2008,02,09,01,19,0.00
2008,02,09,01,20,0.00
2008,02,09,01,21,0.40
2008,02,09,01,22,1.50
2008,02,09,01,23,0.50
2008,02,09,01,24,2.40
2008,02,09,01,25,2.40
2008,02,09,01,26,2.50
2008,02,09,01,27,0.40
2008,02,09,01,28,0.00
2008,02,09,01,29,0.00
2008,02,09,01,30,0.00
2008,02,09,01,31,0.10
2008,02,09,01,32,0.30
2008,02,09,01,33,0.20
2008,02,09,01,34,0.20
2008,02,09,01,35,0.00
2008,02,09,01,36,0.40
2008,02,09,01,37,0.80
2008,02,09,01,38,1.90
2008,02,09,01,39,2.30
2008,02,09,01,40,1.00
2008,02,09,01,41,0.20
2008,02,09,01,42,1.10
2008,02,09,01,43,0.00
2008,02,09,01,44,0.00
2008,02,09,01,45,0.30
2008,02,09,01,46,0.60
2008,02,09,01,47,0.60
2008,02,09,01,48,0.50
2008,02,09,01,49,0.20
2008,02,09,01,50,1.40
2008,02,09,01,51,2.10
2008,02,09,01,52,3.30
2008,02,09,01,53,3.90
2008,02,09,01,54,2.70
2008,02,09,01,55,3.20
2008,02,09,01,56,3.00
2008,02,09,01,57,3.50
2008,02,09,01,58,4.60
2008,02,09,01,59,4.80
2008,02,09,02,00,3.60
2008,02,09,02,01,2.70
2008,02,09,02,02,1.60
2008,02,09,02,03,2.50
2008,02,09,02,04,2.30
2008,02,09,02,05,2.60
2008,02,09,02,06,3.70
2008,02,09,02,07,3.20
2008,02,09,02,08,2.60
2008,02,09,02,09,3.80
2008,02,09,02,10,1.90
2008,02,09,02,11,2.40
2008,02,09,02,12,2.20
2008,02,09,02,13,0.00
2008,02,09,02,14,0.00
2008,02,09,02,15,0.20
2008,02,09,02,16,0.00
2008,02,09,02,17,0.50
2008,02,09,02,18,0.70
2008,02,09,02,19,3.30
2008,02,09,02,20,4.30
2008,02,09,02,21,0.90
2008,02,09,02,22,1.50
2008,02,09,02,23,1.90
2008,02,09,02,24,0.20
2008,02,09,02,25,2.30
2008,02,09,02,26,2.30
2008,02,09,02,27,0.10
2008,02,09,02,28,1.50
2008,02,09,02,29,3.10
2008,02,09,02,30,1.40
2008,02,09,02,31,1.80
2008,02,09,02,32,1.20
2008,02,09,02,33,1.30
2008,02,09,02,34,0.80
2008,02,09,02,35,1.50
2008,02,09,02,36,2.10
2008,02,09,02,37,2.70
2008,02,09,02,38,1.30
2008,02,09,02,39,3.90
2008,02,09,02,40,4.10
2008,02,09,02,41,1.80
2008,02,09,02,42,2.70
2008,02,09,02,43,2.70
2008,02,09,02,44,1.90
2008,02,09,02,45,2.70
2008,02,09,02,46,2.50
2008,02,09,02,47,0.00
2008,02,09,02,48,0.00
2008,02,09,02,49,0.30
2008,02,09,02,50,0.70
2008,02,09,02,51,2.30
2008,02,09,02,52,1.30
2008,02,09,02,53,1.40
2008,02,09,02,54,2.40
2008,02,09,02,55,1.40
2008,02,09,02,56,1.80
2008,02,09,02,57,2.20
2008,02,09,02,58,3.80
2008,02,09,02,59,1.70
2008,02,09,03,00,1.40
2008,02,09,03,01,0.30
2008,02,09,03,02,0.70
2008,02,09,03,03,0.80
2008,02,09,03,04,1.20
2008,02,09,03,05,1.90
2008,02,09,03,06,2.20
2008,02,09,03,07,0.70
2008,02,09,03,08,2.10
2008,02,09,03,09,1.80
2008,02,09,03,10,1.20
2008,02,09,03,11,1.70
2008,02,09,03,12,0.20
2008,02,09,03,13,0.00
2008,02,09,03,14,0.00
2008,02,09,03,15,0.00
2008,02,09,03,16,0.50
2008,02,09,03,17,1.50
2008,02,09,03,18,0.00
2008,02,09,03,19,0.30
2008,02,09,03,20,1.10
2008,02,09,03,21,0.00
2008,02,09,03,22,0.30
2008,02,09,03,23,0.10
2008,02,09,03,24,2.60
2008,02,09,03,25,0.20
2008,02,09,03,26,0.20
2008,02,09,03,27,0.80
2008,02,09,03,28,0.00
2008,02,09,03,29,1.60
2008,02,09,03,30,1.10
2008,02,09,03,31,0.80
2008,02,09,03,32,1.70
2008,02,09,03,33,0.90
2008,02,09,03,34,0.40
2008,02,09,03,35,0.80
2008,02,09,03,36,2.40
2008,02,09,03,37,2.30
2008,02,09,03,38,2.40
2008,02,09,03,39,1.80
2008,02,09,03,40,3.80
2008,02,09,03,41,1.10
2008,02,09,03,42,0.00
2008,02,09,03,43,0.20
2008,02,09,03,44,0.20
2008,02,09,03,45,0.10
2008,02,09,03,46,0.00
2008,02,09,03,47,0.20
2008,02,09,03,48,0.00
2008,02,09,03,49,0.40
2008,02,09,03,50,0.40
2008,02,09,03,51,0.70
2008,02,09,03,52,0.00
2008,02,09,03,53,0.00
2008,02,09,03,54,0.00
2008,02,09,03,55,0.00
2008,02,09,03,56,0.50
2008,02,09,03,57,0.50
2008,02,09,03,58,0.80
2008,02,09,03,59,0.30
2008,02,09,04,00,0.00
2008,02,09,04,01,0.00
2008,02,09,04,02,0.00
2008,02,09,04,03,0.00
2008,02,09,04,04,0.00
2008,02,09,04,05,0.00
2008,02,09,04,06,0.40
2008,02,09,04,07,0.10
2008,02,09,04,08,0.00
2008,02,09,04,09,0.00
2008,02,09,04,10,0.00
2008,02,09,04,11,0.00
2008,02,09,04,12,0.00
2008,02,09,04,13,0.20
2008,02,09,04,14,0.20
2008,02,09,04,15,0.10
2008,02,09,04,16,0.20
2008,02,09,04,17,0.10
2008,02,09,04,18,1.10
2008,02,09,04,19,0.60
2008,02,09,04,20,0.30
2008,02,09,04,21,0.10
2008,02,09,04,22,0.60
2008,02,09,04,23,0.00
2008,02,09,04,24,0.00
2008,02,09,04,25,0.00
2008,02,09,04,26,0.00
2008,02,09,04,27,0.00
2008,02,09,04,28,0.00
2008,02,09,04,29,0.00
2008,02,09,04,30,0.40
2008,02,09,04,31,0.40
2008,02,09,04,32,0.40
2008,02,09,04,33,0.10
2008,02,09,04,34,0.10
2008,02,09,04,35,0.00
2008,02,09,04,36,0.60
2008,02,09,04,37,0.00
2008,02,09,04,38,0.00
2008,02,09,04,39,0.30
2008,02,09,04,40,0.10
2008,02,09,04,41,1.10
2008,02,09,04,42,1.30
2008,02,09,04,43,0.30
2008,02,09,04,44,0.00
2008,02,09,04,45,1.70
2008,02,09,04,46,0.20
2008,02,09,04,47,0.10
2008,02,09,04,48,0.00
2008,02,09,04,49,0.10
2008,02,09,04,50,0.00
2008,02,09,04,51,0.00
2008,02,09,04,52,0.00
2008,02,09,04,53,0.10
2008,02,09,04,54,0.00
2008,02,09,04,55,0.00
2008,02,09,04,56,0.00
2008,02,09,04,57,0.30
2008,02,09,04,58,0.90
2008,02,09,04,59,0.20
2008,02,09,05,00,0.10
2008,02,09,05,01,0.70
2008,02,09,05,02,1.00
2008,02,09,05,03,1.20
2008,02,09,05,04,0.40
2008,02,09,05,05,1.50
2008,02,09,05,06,0.20
2008,02,09,05,07,0.00
2008,02,09,05,08,0.00
2008,02,09,05,09,0.00
2008,02,09,05,10,0.40
2008,02,09,05,11,4.60
2008,02,09,05,12,5.60
2008,02,09,05,13,5.60
2008,02,09,05,14,3.00
2008,02,09,05,15,2.30
2008,02,09,05,16,3.50
2008,02,09,05,17,2.70
2008,02,09,05,18,2.50
2008,02,09,05,19,3.10
2008,02,09,05,20,5.30
2008,02,09,05,21,4.00
2008,02,09,05,22,3.50
2008,02,09,05,23,0.60
2008,02,09,05,24,1.60
2008,02,09,05,25,1.60
2008,02,09,05,26,2.70
2008,02,09,05,27,3.70
2008,02,09,05,28,0.40
2008,02,09,05,29,0.00
2008,02,09,05,30,0.00
2008,02,09,05,31,0.70
2008,02,09,05,32,0.70
2008,02,09,05,33,2.50
2008,02,09,05,34,2.40
2008,02,09,05,35,0.50
2008,02,09,05,36,0.40
2008,02,09,05,37,0.00
2008,02,09,05,38,0.00
2008,02,09,05,39,1.40
2008,02,09,05,40,0.00
2008,02,09,05,41,1.00
2008,02,09,05,42,2.60
2008,02,09,05,43,2.30
2008,02,09,05,44,1.50
2008,02,09,05,45,1.90
2008,02,09,05,46,2.30
2008,02,09,05,47,3.80
2008,02,09,05,48,2.40
2008,02,09,05,49,2.20
2008,02,09,05,50,4.30
2008,02,09,05,51,0.30
2008,02,09,05,52,0.90
2008,02,09,05,53,0.50
2008,02,09,05,54,1.00
2008,02,09,05,55,0.40
2008,02,09,05,56,0.20
2008,02,09,05,57,0.20
2008,02,09,05,58,3.10
2008,02,09,05,59,3.80
2008,02,09,06,00,2.20
2008,02,09,06,01,1.20
2008,02,09,06,02,1.50
2008,02,09,06,03,4.10
2008,02,09,06,04,2.60
2008,02,09,06,05,2.40
2008,02,09,06,06,2.00
2008,02,09,06,07,0.00
2008,02,09,06,08,0.00
2008,02,09,06,09,1.50
2008,02,09,06,10,0.10
2008,02,09,06,11,0.70
2008,02,09,06,12,3.60
2008,02,09,06,13,4.30
2008,02,09,06,14,1.10
2008,02,09,06,15,3.80
2008,02,09,06,16,3.50
2008,02,09,06,17,2.20
2008,02,09,06,18,1.40
2008,02,09,06,19,2.30
2008,02,09,06,20,2.00
2008,02,09,06,21,1.10
2008,02,09,06,22,3.60
2008,02,09,06,23,0.40
2008,02,09,06,24,0.60
2008,02,09,06,25,0.20
2008,02,09,06,26,0.30
2008,02,09,06,27,5.60
2008,02,09,06,28,2.70
2008,02,09,06,29,1.90
2008,02,09,06,30,0.00
2008,02,09,06,31,3.00
2008,02,09,06,32,1.60
2008,02,09,06,33,0.80
2008,02,09,06,34,3.70
2008,02,09,06,35,4.50
2008,02,09,06,36,0.30
2008,02,09,06,37,0.10
2008,02,09,06,38,3.90
2008,02,09,06,39,0.30
2008,02,09,06,40,0.50
2008,02,09,06,41,2.70
2008,02,09,06,42,3.30
2008,02,09,06,43,3.40
2008,02,09,06,44,4.00
2008,02,09,06,45,2.10
2008,02,09,06,46,3.10
2008,02,09,06,47,2.50
2008,02,09,06,48,0.90
2008,02,09,06,49,0.60
2008,02,09,06,50,1.00
2008,02,09,06,51,3.40
2008,02,09,06,52,1.60
2008,02,09,06,53,0.30
2008,02,09,06,54,0.30
2008,02,09,06,55,0.70
2008,02,09,06,56,2.30
2008,02,09,06,57,1.80
2008,02,09,06,58,1.50
2008,02,09,06,59,1.90
2008,02,09,07,00,0.70
2008,02,09,07,01,0.90
2008,02,09,07,02,1.20
2008,02,09,07,03,5.60
2008,02,09,07,04,2.30
2008,02,09,07,05,0.30
2008,02,09,07,06,2.50
2008,02,09,07,07,3.80
2008,02,09,07,08,2.20
2008,02,09,07,09,3.50
2008,02,09,07,10,4.00
2008,02,09,07,11,3.50
2008,02,09,07,12,2.60
2008,02,09,07,13,2.50
2008,02,09,07,14,5.30
2008,02,09,07,15,4.60
2008,02,09,07,16,2.20
2008,02,09,07,17,2.20
2008,02,09,07,18,3.80
2008,02,09,07,19,3.80
2008,02,09,07,20,2.50
2008,02,09,07,21,2.90
2008,02,09,07,22,1.70
2008,02,09,07,23,1.40
2008,02,09,07,24,1.70
2008,02,09,07,25,1.20
2008,02,09,07,26,0.10
2008,02,09,07,27,5.10
2008,02,09,07,28,3.20
2008,02,09,07,29,0.20
2008,02,09,07,30,1.60
2008,02,09,07,31,0.00
2008,02,09,07,32,0.20
2008,02,09,07,33,0.40
2008,02,09,07,34,0.60
2008,02,09,07,35,0.90
2008,02,09,07,36,0.10
2008,02,09,07,37,0.60
2008,02,09,07,38,0.20
2008,02,09,07,39,0.00
2008,02,09,07,40,0.10
2008,02,09,07,41,3.10
2008,02,09,07,42,2.70
2008,02,09,07,43,1.20
2008,02,09,07,44,0.00
2008,02,09,07,45,0.00
2008,02,09,07,46,1.70
2008,02,09,07,47,2.70
2008,02,09,07,48,2.00
2008,02,09,07,49,1.10
2008,02,09,07,50,0.50
2008,02,09,07,51,1.30
2008,02,09,07,52,1.50
2008,02,09,07,53,1.10
2008,02,09,07,54,0.60
2008,02,09,07,55,0.00
2008,02,09,07,56,0.00
2008,02,09,07,57,0.00
2008,02,09,07,58,0.10
2008,02,09,07,59,0.30
2008,02,09,08,00,1.30
2008,02,09,08,01,0.60
2008,02,09,08,02,2.80
2008,02,09,08,03,2.00
2008,02,09,08,04,2.20
2008,02,09,08,05,2.60
2008,02,09,08,06,1.70
2008,02,09,08,07,0.50
2008,02,09,08,08,3.00
2008,02,09,08,09,2.30
2008,02,09,08,10,0.30
2008,02,09,08,11,0.60
2008,02,09,08,12,3.80
2008,02,09,08,13,1.00
2008,02,09,08,14,1.80
2008,02,09,08,15,2.80
2008,02,09,08,16,3.10
2008,02,09,08,17,3.00
2008,02,09,08,18,2.20
2008,02,09,08,19,3.80
2008,02,09,08,20,2.40
2008,02,09,08,21,2.20
2008,02,09,08,22,2.60
2008,02,09,08,23,2.90
2008,02,09,08,24,3.40
2008,02,09,08,25,3.40
2008,02,09,08,26,1.30
2008,02,09,08,27,0.10
2008,02,09,08,28,2.50
2008,02,09,08,29,0.90
2008,02,09,08,30,2.30
2008,02,09,08,31,1.90
2008,02,09,08,32,3.30
2008,02,09,08,33,1.90
2008,02,09,08,34,0.30
2008,02,09,08,35,2.90
2008,02,09,08,36,3.30
2008,02,09,08,37,2.90
2008,02,09,08,38,0.60
2008,02,09,08,39,0.20
2008,02,09,08,40,0.00
2008,02,09,08,41,0.50
2008,02,09,08,42,0.20
2008,02,09,08,43,0.70
2008,02,09,08,44,2.00
2008,02,09,08,45,0.60
2008,02,09,08,46,0.50
2008,02,09,08,47,0.30
2008,02,09,08,48,1.20
2008,02,09,08,49,0.00
2008,02,09,08,50,1.40
2008,02,09,08,51,3.40
2008,02,09,08,52,2.80
2008,02,09,08,53,3.50
2008,02,09,08,54,2.30
2008,02,09,08,55,2.70
2008,02,09,08,56,2.10
2008,02,09,08,57,0.20
2008,02,09,08,58,1.90
2008,02,09,08,59,3.70
2008,02,09,09,00,0.30
2008,02,09,09,01,0.20
2008,02,09,09,02,0.70
2008,02,09,09,03,1.70
2008,02,09,09,04,1.80
2008,02,09,09,05,0.10
2008,02,09,09,06,1.50
2008,02,09,09,07,3.90
2008,02,09,09,08,2.90
2008,02,09,09,09,2.50
2008,02,09,09,10,0.30
2008,02,09,09,11,0.00
2008,02,09,09,12,0.00
2008,02,09,09,13,0.70
2008,02,09,09,14,0.60
2008,02,09,09,15,0.40
2008,02,09,09,16,1.00
2008,02,09,09,17,0.60
2008,02,09,09,18,0.00
2008,02,09,09,19,0.20
2008,02,09,09,20,0.00
2008,02,09,09,21,0.00
2008,02,09,09,22,0.90
2008,02,09,09,23,0.10
2008,02,09,09,24,0.10
2008,02,09,09,25,0.80
2008,02,09,09,26,2.00
2008,02,09,09,27,0.00
2008,02,09,09,28,0.00
2008,02,09,09,29,0.00
2008,02,09,09,30,0.50
2008,02,09,09,31,0.90
2008,02,09,09,32,0.00
2008,02,09,09,33,0.00
2008,02,09,09,34,0.00
2008,02,09,09,35,0.80
2008,02,09,09,36,2.40
2008,02,09,09,37,0.90
2008,02,09,09,38,0.00
2008,02,09,09,39,0.00
2008,02,09,09,40,0.10
2008,02,09,09,41,0.20
2008,02,09,09,42,1.50
2008,02,09,09,43,1.00
2008,02,09,09,44,0.40
2008,02,09,09,45,0.10
2008,02,09,09,46,0.20
2008,02,09,09,47,0.00
2008,02,09,09,48,0.10
2008,02,09,09,49,0.30
2008,02,09,09,50,0.00
2008,02,09,09,51,0.00
2008,02,09,09,52,0.00
2008,02,09,09,53,1.00
2008,02,09,09,54,3.80
2008,02,09,09,55,3.60
2008,02,09,09,56,2.70
2008,02,09,09,57,1.30
2008,02,09,09,58,2.70
2008,02,09,09,59,2.90
2008,02,09,10,00,0.30
2008,02,09,10,01,0.30
2008,02,09,10,02,2.50
2008,02,09,10,03,1.90
2008,02,09,10,04,1.00
2008,02,09,10,05,2.70
2008,02,09,10,06,3.50
2008,02,09,10,07,0.40
2008,02,09,10,08,1.00
2008,02,09,10,09,0.00
2008,02,09,10,10,2.70
2008,02,09,10,11,4.70
2008,02,09,10,12,3.20
2008,02,09,10,13,1.60
2008,02,09,10,14,2.70
2008,02,09,10,15,2.30
2008,02,09,10,16,0.00
2008,02,09,10,17,1.70
2008,02,09,10,18,3.00
2008,02,09,10,19,3.20
2008,02,09,10,20,2.50
2008,02,09,10,21,3.80
2008,02,09,10,22,3.70
2008,02,09,10,23,2.50
2008,02,09,10,24,3.00
2008,02,09,10,25,1.80
2008,02,09,10,26,0.20
2008,02,09,10,27,0.00
2008,02,09,10,28,1.30
2008,02,09,10,29,0.30
2008,02,09,10,30,0.00
2008,02,09,10,31,0.30
2008,02,09,10,32,0.20
2008,02,09,10,33,0.00
2008,02,09,10,34,0.00
2008,02,09,10,35,0.20
2008,02,09,10,36,0.10
2008,02,09,10,37,0.40
2008,02,09,10,38,0.00
2008,02,09,10,39,0.20
2008,02,09,10,40,0.00
2008,02,09,10,41,1.20
2008,02,09,10,42,1.50
2008,02,09,10,43,1.00
2008,02,09,10,44,0.60
2008,02,09,10,45,0.60
2008,02,09,10,46,0.70
2008,02,09,10,47,0.10
2008,02,09,10,48,0.00
2008,02,09,10,49,0.10
2008,02,09,10,50,0.00
2008,02,09,10,51,0.00
2008,02,09,10,52,0.00
2008,02,09,10,53,0.50
2008,02,09,10,54,0.60
2008,02,09,10,55,0.60
2008,02,09,10,56,1.40
2008,02,09,10,57,0.60
2008,02,09,10,58,0.40
2008,02,09,10,59,0.60
2008,02,09,11,00,0.90
2008,02,09,11,01,0.90
2008,02,09,11,02,0.60
2008,02,09,11,03,2.20
2008,02,09,11,04,0.40
2008,02,09,11,05,0.00
2008,02,09,11,06,0.00
2008,02,09,11,07,0.00
2008,02,09,11,08,0.00
2008,02,09,11,09,0.00
2008,02,09,11,10,0.00
2008,02,09,11,11,0.20
2008,02,09,11,12,2.90
2008,02,09,11,13,0.70
2008,02,09,11,14,3.00
2008,02,09,11,15,4.20
2008,02,09,11,16,3.90
2008,02,09,11,17,4.10
2008,02,09,11,18,5.50
2008,02,09,11,19,3.70
2008,02,09,11,20,4.70
2008,02,09,11,21,8.40
2008,02,09,11,22,4.90
2008,02,09,11,23,6.20
2008,02,09,11,24,4.70
2008,02,09,11,25,5.50
2008,02,09,11,26,4.40
2008,02,09,11,27,2.90
2008,02,09,11,28,3.60
2008,02,09,11,29,8.00
2008,02,09,11,30,7.00
2008,02,09,11,31,3.70
2008,02,09,11,32,4.80
2008,02,09,11,33,8.60
2008,02,09,11,34,8.40
2008,02,09,11,35,8.30
2008,02,09,11,36,9.20
2008,02,09,11,37,7.30
2008,02,09,11,38,3.80
2008,02,09,11,39,5.20
2008,02,09,11,40,6.90
2008,02,09,11,41,9.30
2008,02,09,11,42,7.20
2008,02,09,11,43,6.40
2008,02,09,11,44,6.40
2008,02,09,11,45,5.00
2008,02,09,11,46,6.00
2008,02,09,11,47,7.90
2008,02,09,11,48,6.70
2008,02,09,11,49,5.60
2008,02,09,11,50,4.60
2008,02,09,11,51,2.10
2008,02,09,11,52,4.60
2008,02,09,11,53,5.40
2008,02,09,11,54,2.00
2008,02,09,11,55,3.60
2008,02,09,11,56,6.30
2008,02,09,11,57,6.50
2008,02,09,11,58,6.60
2008,02,09,11,59,7.10
2008,02,09,12,00,3.10
2008,02,09,12,01,5.50
2008,02,09,12,02,6.00
2008,02,09,12,03,4.80
2008,02,09,12,04,5.50
2008,02,09,12,05,7.10
2008,02,09,12,06,6.80
2008,02,09,12,07,5.70
2008,02,09,12,08,8.10
2008,02,09,12,09,6.80
2008,02,09,12,10,4.40
2008,02,09,12,11,5.80
2008,02,09,12,12,5.60
2008,02,09,12,13,4.60
2008,02,09,12,14,5.30
2008,02,09,12,15,3.50
2008,02,09,12,16,4.10
2008,02,09,12,17,2.70
2008,02,09,12,18,3.40
2008,02,09,12,19,4.30
2008,02,09,12,20,6.50
2008,02,09,12,21,8.70
2008,02,09,12,22,8.90
2008,02,09,12,23,8.90
2008,02,09,12,24,9.90
2008,02,09,12,25,8.40
2008,02,09,12,26,6.10
2008,02,09,12,27,5.50
2008,02,09,12,28,7.90
2008,02,09,12,29,7.90
2008,02,09,12,30,5.60
2008,02,09,12,31,4.90
2008,02,09,12,32,3.60
2008,02,09,12,33,4.70
2008,02,09,12,34,6.90
2008,02,09,12,35,5.80
2008,02,09,12,36,7.90
2008,02,09,12,37,8.00
2008,02,09,12,38,10.50
2008,02,09,12,39,7.10
2008,02,09,12,40,8.70
2008,02,09,12,41,11.20
2008,02,09,12,42,8.50
2008,02,09,12,43,11.80
2008,02,09,12,44,6.90
2008,02,09,12,45,6.30
2008,02,09,12,46,7.10
2008,02,09,12,47,7.30
2008,02,09,12,48,7.80
2008,02,09,12,49,11.10
2008,02,09,12,50,5.30
2008,02,09,12,51,6.50
2008,02,09,12,52,9.30
2008,02,09,12,53,8.30
2008,02,09,12,54,10.70
2008,02,09,12,55,9.70
2008,02,09,12,56,8.10
2008,02,09,12,57,8.00
2008,02,09,12,58,7.00
2008,02,09,12,59,11.90
2008,02,09,13,00,12.00
2008,02,09,13,01,8.10
2008,02,09,13,02,10.60
2008,02,09,13,03,10.50
2008,02,09,13,04,8.60
2008,02,09,13,05,9.60
2008,02,09,13,06,7.80
2008,02,09,13,07,6.40
2008,02,09,13,08,6.80
2008,02,09,13,09,8.00
2008,02,09,13,10,6.60
2008,02,09,13,11,6.40
2008,02,09,13,12,6.60
2008,02,09,13,13,6.80
2008,02,09,13,14,6.80
2008,02,09,13,15,7.20
2008,02,09,13,16,9.90
2008,02,09,13,17,8.70
2008,02,09,13,18,7.50
2008,02,09,13,19,5.90
2008,02,09,13,20,5.60
2008,02,09,13,21,4.40
2008,02,09,13,22,5.50
2008,02,09,13,23,11.10
2008,02,09,13,24,9.20
2008,02,09,13,25,8.80
2008,02,09,13,26,12.00
2008,02,09,13,27,9.00
2008,02,09,13,28,12.00
2008,02,09,13,29,14.10
2008,02,09,13,30,8.70
2008,02,09,13,31,12.30
2008,02,09,13,32,10.40
2008,02,09,13,33,8.60
2008,02,09,13,34,7.30
2008,02,09,13,35,9.20
2008,02,09,13,36,8.20
2008,02,09,13,37,9.30
2008,02,09,13,38,9.20
2008,02,09,13,39,7.60
2008,02,09,13,40,6.40
2008,02,09,13,41,6.60
2008,02,09,13,42,8.90
2008,02,09,13,43,7.00
2008,02,09,13,44,7.40
2008,02,09,13,45,6.90
2008,02,09,13,46,7.00
2008,02,09,13,47,6.30
2008,02,09,13,48,7.00
2008,02,09,13,49,8.30
2008,02,09,13,50,5.20
2008,02,09,13,51,6.00
2008,02,09,13,52,10.20
2008,02,09,13,53,6.40
2008,02,09,13,54,8.60
2008,02,09,13,55,11.80
2008,02,09,13,56,11.40
2008,02,09,13,57,9.60
2008,02,09,13,58,8.10
2008,02,09,13,59,9.70
2008,02,09,14,00,6.40
2008,02,09,14,01,7.70
2008,02,09,14,02,8.80
2008,02,09,14,03,5.30
2008,02,09,14,04,7.10
2008,02,09,14,05,7.00
2008,02,09,14,06,10.20
2008,02,09,14,07,9.40
2008,02,09,14,08,8.50
2008,02,09,14,09,11.00
2008,02,09,14,10,9.20
2008,02,09,14,11,7.50
2008,02,09,14,12,7.70
2008,02,09,14,13,8.40
2008,02,09,14,14,8.40
2008,02,09,14,15,8.00
2008,02,09,14,16,11.50
2008,02,09,14,17,7.50
2008,02,09,14,18,7.50
2008,02,09,14,19,6.90
2008,02,09,14,20,7.60
2008,02,09,14,21,8.50
2008,02,09,14,22,6.00
2008,02,09,14,23,6.10
2008,02,09,14,24,4.60
2008,02,09,14,25,7.30
2008,02,09,14,26,3.90
2008,02,09,14,27,7.40
2008,02,09,14,28,8.90
2008,02,09,14,29,7.50
2008,02,09,14,30,8.70
2008,02,09,14,31,6.90
2008,02,09,14,32,10.20
2008,02,09,14,33,10.70
2008,02,09,14,34,7.40
2008,02,09,14,35,9.20
2008,02,09,14,36,9.60
2008,02,09,14,37,6.40
2008,02,09,14,38,8.50
2008,02,09,14,39,6.70
2008,02,09,14,40,3.90
2008,02,09,14,41,5.10
2008,02,09,14,42,5.70
2008,02,09,14,43,7.80
2008,02,09,14,44,6.20
2008,02,09,14,45,3.90
2008,02,09,14,46,5.20
2008,02,09,14,47,7.40
2008,02,09,14,48,8.10
2008,02,09,14,49,6.10
2008,02,09,14,50,7.50
2008,02,09,14,51,6.40
2008,02,09,14,52,6.10
2008,02,09,14,53,3.20
2008,02,09,14,54,3.70
2008,02,09,14,55,8.10
2008,02,09,14,56,7.90
2008,02,09,14,57,4.70
2008,02,09,14,58,2.10
2008,02,09,14,59,6.60
2008,02,09,15,00,9.40
2008,02,09,15,01,7.70
2008,02,09,15,02,6.60
2008,02,09,15,03,4.00
2008,02,09,15,04,3.40
2008,02,09,15,05,4.30
2008,02,09,15,06,8.00
2008,02,09,15,07,8.90
2008,02,09,15,08,8.50
2008,02,09,15,09,8.50
2008,02,09,15,10,8.10
2008,02,09,15,11,7.30
2008,02,09,15,12,7.50
2008,02,09,15,13,5.90
2008,02,09,15,14,3.00
2008,02,09,15,15,5.90
2008,02,09,15,16,7.80
2008,02,09,15,17,7.90
2008,02,09,15,18,5.40
2008,02,09,15,19,7.00
2008,02,09,15,20,3.80
2008,02,09,15,21,6.00
2008,02,09,15,22,5.00
2008,02,09,15,23,7.40
2008,02,09,15,24,7.20
2008,02,09,15,25,6.90
2008,02,09,15,26,8.80
2008,02,09,15,27,7.80
2008,02,09,15,28,8.70
2008,02,09,15,29,7.50
2008,02,09,15,30,6.40
2008,02,09,15,31,7.50
2008,02,09,15,32,5.30
2008,02,09,15,33,5.20
2008,02,09,15,34,8.40
2008,02,09,15,35,7.70
2008,02,09,15,36,3.30
2008,02,09,15,37,4.80
2008,02,09,15,38,5.20
2008,02,09,15,39,5.80
2008,02,09,15,40,3.30
2008,02,09,15,41,4.70
2008,02,09,15,42,5.70
2008,02,09,15,43,5.30
2008,02,09,15,44,4.90
2008,02,09,15,45,4.60
2008,02,09,15,46,4.60
2008,02,09,15,47,4.30
2008,02,09,15,48,1.20
2008,02,09,15,49,4.50
2008,02,09,15,50,4.70
2008,02,09,15,51,2.80
2008,02,09,15,52,3.50
2008,02,09,15,53,1.50
2008,02,09,15,54,3.90
2008,02,09,15,55,5.60
2008,02,09,15,56,5.20
2008,02,09,15,57,4.60
2008,02,09,15,58,3.20
2008,02,09,15,59,5.60
2008,02,09,16,00,0.70
2008,02,09,16,01,5.20
2008,02,09,16,02,4.40
2008,02,09,16,03,3.90
2008,02,09,16,04,8.60
2008,02,09,16,05,7.70
2008,02,09,16,06,7.40
2008,02,09,16,07,4.10
2008,02,09,16,08,7.10
2008,02,09,16,09,3.70
2008,02,09,16,10,4.70
2008,02,09,16,11,4.70
2008,02,09,16,12,4.20
2008,02,09,16,13,4.80
2008,02,09,16,14,6.00
2008,02,09,16,15,3.70
2008,02,09,16,16,5.60
2008,02,09,16,17,6.30
2008,02,09,16,18,4.50
2008,02,09,16,19,4.50
2008,02,09,16,20,5.30
2008,02,09,16,21,2.20
2008,02,09,16,22,4.30
2008,02,09,16,23,4.10
2008,02,09,16,24,5.30
2008,02,09,16,25,3.30
2008,02,09,16,26,3.50
2008,02,09,16,27,1.80
2008,02,09,16,28,2.00
2008,02,09,16,29,1.30
2008,02,09,16,30,0.00
2008,02,09,16,31,0.10
2008,02,09,16,32,1.90
2008,02,09,16,33,0.10
2008,02,09,16,34,0.00
2008,02,09,16,35,2.50
2008,02,09,16,36,2.90
2008,02,09,16,37,4.00
2008,02,09,16,38,4.10
2008,02,09,16,39,4.60
2008,02,09,16,40,1.40
2008,02,09,16,41,2.20
2008,02,09,16,42,2.70
2008,02,09,16,43,2.60
2008,02,09,16,44,5.20
2008,02,09,16,45,5.00
2008,02,09,16,46,3.60
2008,02,09,16,47,0.70
2008,02,09,16,48,3.70
2008,02,09,16,49,5.70
2008,02,09,16,50,1.90
2008,02,09,16,51,5.60
2008,02,09,16,52,5.60
2008,02,09,16,53,3.40
2008,02,09,16,54,3.20
2008,02,09,16,55,4.50
2008,02,09,16,56,4.10
2008,02,09,16,57,4.10
2008,02,09,16,58,3.70
2008,02,09,16,59,4.30
2008,02,09,17,00,5.00
2008,02,09,17,01,3.20
2008,02,09,17,02,2.10
2008,02,09,17,03,4.00
2008,02,09,17,04,2.40
2008,02,09,17,05,1.30
2008,02,09,17,06,0.40
2008,02,09,17,07,1.40
2008,02,09,17,08,0.00
2008,02,09,17,09,1.30
2008,02,09,17,10,4.70
2008,02,09,17,11,5.30
2008,02,09,17,12,5.10
2008,02,09,17,13,6.50
2008,02,09,17,14,4.10
2008,02,09,17,15,4.30
2008,02,09,17,16,5.50
2008,02,09,17,17,6.50
2008,02,09,17,18,8.50
2008,02,09,17,19,9.80
2008,02,09,17,20,9.40
2008,02,09,17,21,8.10
2008,02,09,17,22,6.20
2008,02,09,17,23,7.30
2008,02,09,17,24,10.40
2008,02,09,17,25,8.00
2008,02,09,17,26,6.20
2008,02,09,17,27,5.00
2008,02,09,17,28,3.10
2008,02,09,17,29,2.20
2008,02,09,17,30,5.20
2008,02,09,17,31,2.20
2008,02,09,17,32,2.80
2008,02,09,17,33,2.30
2008,02,09,17,34,5.40
2008,02,09,17,35,4.40
2008,02,09,17,36,4.30
2008,02,09,17,37,5.20
2008,02,09,17,38,5.00
2008,02,09,17,39,4.10
2008,02,09,17,40,0.40
2008,02,09,17,41,0.50
2008,02,09,17,42,0.00
2008,02,09,17,43,0.30
2008,02,09,17,44,0.00
2008,02,09,17,45,0.00
2008,02,09,17,46,0.00
2008,02,09,17,47,0.10
2008,02,09,17,48,0.00
2008,02,09,17,49,1.10
2008,02,09,17,50,1.70
2008,02,09,17,51,0.10
2008,02,09,17,52,1.40
2008,02,09,17,53,2.50
2008,02,09,17,54,1.90
2008,02,09,17,55,2.60
2008,02,09,17,56,3.00
2008,02,09,17,57,4.40
2008,02,09,17,58,6.00
2008,02,09,17,59,5.00
2008,02,09,18,00,3.90
2008,02,09,18,01,1.40
2008,02,09,18,02,1.50
2008,02,09,18,03,2.10
2008,02,09,18,04,2.50
2008,02,09,18,05,2.00